Vienna, OH

12:09 AM EST on December 04, 2016 (GMT -0500)
Youngstown-Warren Regional

Weather History for KYNG - May, 2013

Change the Weather History Date:

Sunday, May 26, 2013

  Actual Average Record
Temperature  
Mean Temperature 49 °F 60 °F  
Max Temperature 64 °F 72 °F 87 °F (1939)
Min Temperature 33 °F 50 °F 30 °F (1988)
Degree Days  
Heating Degree Days 16 6  
Month to date heating degree days 173 226  
Since 1 July heating degree days 6083 6253  
Cooling Degree Days 0 2  
Month to date cooling degree days 43 20  
Year to date cooling degree days 50 29  
Moisture  
Dew Point 33 °F    
Average Humidity 62    
Maximum Humidity 96    
Minimum Humidity 27    
Precipitation  
Precipitation 0.00 in 0.12 in 0.96 in (1950)
Month to date precipitation 0.99 3.14  
Year to date precipitation 11.29 14.14  
Snow  
Snow 0.00 in 0.00 in - ()
Month to date snowfall T 0.0  
Since 1 July snowfall 80.9 62.7  
Snow Depth 0.00 in    
Sea Level Pressure  
Sea Level Pressure 30.28 in    
Wind  
Wind Speed 6 mph (NW)    
Max Wind Speed 20 mph    
Max Gust Speed 29 mph    
Visibility 10 miles    
Events      
T = Trace of Precipitation, MM = Missing Value Source: NWS Daily Summary

Daily Weather History Graph

Daily Weather History Graph

Search for Another Location

Airport or City:

Trip Planner

Search our weather history database for the weather conditions in past years. The results will help you decide how hot, cold, wet, or windy it might be!

Date:

Astronomy

May. 26, 2013 Rise Set
Actual Time 5:55 AM EDT 8:44 PM EDT
Civil Twilight 5:22 AM EDT 9:17 PM EDT
Nautical Twilight 4:41 AM EDT 9:58 PM EDT
Astronomical Twilight 3:54 AM EDT 10:46 PM EDT
Moon 10:30 PM EDT (5/26) 7:22 AM EDT (5/26)
Length of Visible Light 15h 54m
Length of Day
14h 49m
Waning Gibbous, 97% of the Moon is Illuminated
May 26
Waning Gibbous
May 31
Last Quarter
Jun 8
New
Jun 16
First Quarter
Jun 23
Full

Hourly Weather History & Observations

Time (EDT) Temp. Windchill Dew Point Humidity Pressure Visibility Wind Dir Wind Speed Gust Speed Precip Events Conditions
12:51 AM 39.9 °F 36.7 °F 30.9 °F 70% 30.27 in 10.0 mi WNW 4.6 mph - N/A   Partly Cloudy
1:51 AM 39.0 °F 35.7 °F 32.0 °F 76% 30.27 in 10.0 mi WNW 4.6 mph - N/A   Partly Cloudy
2:51 AM 37.9 °F 35.5 °F 32.0 °F 79% 30.27 in 10.0 mi West 3.5 mph - N/A   Partly Cloudy
3:51 AM 35.1 °F - 30.9 °F 85% 30.26 in 10.0 mi Calm Calm - N/A   Partly Cloudy
4:51 AM 34.0 °F - 30.9 °F 89% 30.27 in 10.0 mi Calm Calm - N/A   Clear
5:51 AM 34.0 °F 31.0 °F 32.0 °F 92% 30.29 in 10.0 mi West 3.5 mph - N/A   Partly Cloudy
6:51 AM 37.0 °F - 34.0 °F 89% 30.30 in 10.0 mi Calm Calm - N/A   Clear
7:51 AM 43.0 °F 40.3 °F 37.9 °F 82% 30.32 in 10.0 mi NW 4.6 mph - N/A   Clear
8:51 AM 48.9 °F - 39.0 °F 69% 30.31 in 10.0 mi NW 6.9 mph - N/A   Clear
9:51 AM 53.1 °F - 37.0 °F 55% 30.31 in 10.0 mi Variable 5.8 mph - N/A   Partly Cloudy
10:51 AM 57.0 °F - 35.1 °F 44% 30.31 in 10.0 mi NW 13.8 mph - N/A   Scattered Clouds
11:51 AM 60.1 °F - 33.1 °F 36% 30.31 in 10.0 mi NW 10.4 mph 24.2 mph N/A   Scattered Clouds
12:51 PM 61.0 °F - 32.0 °F 34% 30.30 in 10.0 mi North 11.5 mph 19.6 mph N/A   Scattered Clouds
1:51 PM 62.1 °F - 32.0 °F 32% 30.29 in 10.0 mi NW 12.7 mph - N/A   Scattered Clouds
2:51 PM 63.0 °F - 30.0 °F 29% 30.29 in 10.0 mi North 13.8 mph 21.9 mph N/A   Scattered Clouds
3:51 PM 64.0 °F - 30.0 °F 28% 30.28 in 10.0 mi NNW 12.7 mph - N/A   Scattered Clouds
4:51 PM 63.0 °F - 28.9 °F 28% 30.28 in 10.0 mi North 9.2 mph - N/A   Scattered Clouds
5:51 PM 63.0 °F - 28.9 °F 28% 30.27 in 10.0 mi NNW 12.7 mph 18.4 mph N/A   Mostly Cloudy
6:51 PM 61.0 °F - 28.9 °F 30% 30.26 in 10.0 mi NNW 9.2 mph - N/A   Mostly Cloudy
7:51 PM 57.9 °F - 28.9 °F 33% 30.25 in 10.0 mi NNW 9.2 mph - N/A   Mostly Cloudy
8:51 PM 51.1 °F - 34.0 °F 52% 30.25 in 10.0 mi Calm Calm - N/A   Scattered Clouds
9:51 PM 48.0 °F - 35.1 °F 61% 30.27 in 10.0 mi Calm Calm - N/A   Mostly Cloudy
10:51 PM 46.0 °F - 36.0 °F 68% 30.27 in 10.0 mi Calm Calm - N/A   Mostly Cloudy
11:51 PM 46.0 °F - 36.0 °F 68% 30.27 in 10.0 mi Calm Calm - N/A   Mostly Cloudy